Terminal Aerodrome Forecast
Issued by NWS Bismarck, ND

Home | Current Version | Previous Version | Graphics & Text | Print | Product List | Glossary On
Versions: 1 2 3 4 5 6 7 8 9 10 11 12 13 14
000
FTUS43 KBIS 292322
TAFISN
TAF
KISN 292322Z 3000/3024 14012G21KT P6SM SKC
     FM300300 13007KT P6SM SCT200 WS020/16035KT
     FM301300 13015KT P6SM BKN150=

USA.gov is the U.S. government's official web portal to all federal, state and local government web resources and services.